Marianna, WV

1:19 AM EST on February 22, 2017 (GMT -0500)
Pineville

Weather History for KI16 - July, 2013

Change the Weather History Date:

Wednesday, July 10, 2013

  Actual Average (KBKW) Record (KBKW)
Temperature  
Mean Temperature 78 °F -  
Max Temperature 86 °F 80 °F 96 °F (1936)
Min Temperature 69 °F 62 °F 38 °F (1961)
Cooling Degree Days 13    
Growing Degree Days 28 (Base 50)    
Moisture  
Dew Point 74 °F    
Average Humidity 93    
Maximum Humidity 100    
Minimum Humidity 71    
Precipitation  
Precipitation 0.00 in - - ()
Sea Level Pressure  
Sea Level Pressure 30.11 in    
Wind  
Wind Speed - (North)    
Max Wind Speed -    
Max Gust Speed -    
Visibility 7 miles    
Events Rain    
Averages and records for this station are not official NWS values.
T = Trace of Precipitation, MM = Missing Value Source: NWS Daily Summary

Daily Weather History Graph

Daily Weather History Graph

Search for Another Location

Airport or City:

Trip Planner

Search our weather history database for the weather conditions in past years. The results will help you decide how hot, cold, wet, or windy it might be!

Date:

Astronomy

Jul. 10, 2013 Rise Set
Actual Time 6:13 AM EDT 8:49 PM EDT
Civil Twilight 5:42 AM EDT 9:20 PM EDT
Nautical Twilight 5:04 AM EDT 9:58 PM EDT
Astronomical Twilight 4:22 AM EDT 10:40 PM EDT
Moon 8:29 AM EDT (7/10) 10:02 PM EDT (7/10)
Length of Visible Light 15h 37m
Length of Day
14h 35m
Waxing Crescent, 5% of the Moon is Illuminated
Jul 10
Waxing Crescent
Jul 15
First Quarter
Jul 22
Full
Jul 29
Last Quarter
Aug 6
New

Hourly Weather History & Observations

Time (EDT) Temp. Heat Index Dew Point Humidity Pressure Visibility Wind Dir Wind Speed Gust Speed Precip Events Conditions
12:15 AM 73.4 °F - 72.9 °F 98% 30.19 in 7.0 mi North - - N/A   Mostly Cloudy
12:35 AM 73.4 °F - 72.9 °F 98% 30.19 in 7.0 mi North - - N/A   Scattered Clouds
12:55 AM 73.0 °F - 72.7 °F 99% 30.18 in 7.0 mi North - - N/A   Scattered Clouds
1:15 AM 73.0 °F - 72.7 °F 99% 30.18 in 7.0 mi North - - N/A   Mostly Cloudy
1:35 AM 73.2 °F - 72.9 °F 99% 30.17 in 7.0 mi North - - N/A Rain Light Rain
1:55 AM 73.0 °F - 72.9 °F 99% 30.17 in 4.0 mi North - - N/A Rain Light Rain
2:15 AM 73.4 °F - 73.4 °F 100% 30.16 in 5.0 mi North - - N/A   Light Drizzle
2:35 AM 73.0 °F - 73.0 °F 100% 30.17 in 3.0 mi North - - N/A   Mostly Cloudy
2:55 AM 72.9 °F - 72.9 °F 100% 30.16 in 3.0 mi North - - N/A   Light Drizzle
3:15 AM 72.7 °F - 72.7 °F 100% 30.16 in 3.0 mi North - - N/A   Overcast
3:55 AM 72.7 °F - 72.7 °F 100% 30.15 in 7.0 mi North - - N/A   Overcast
4:15 AM 72.5 °F - 72.5 °F 100% 30.15 in 3.0 mi North - - N/A   Overcast
4:35 AM 72.5 °F - 72.5 °F 100% 30.14 in 4.0 mi North - - N/A   Overcast
4:55 AM 72.5 °F - 72.5 °F 100% 30.14 in 5.0 mi North - - N/A   Overcast
5:15 AM 72.5 °F - 72.5 °F 100% 30.14 in 4.0 mi North - - N/A Rain Rain
5:35 AM 72.5 °F - 72.5 °F 100% 30.14 in 7.0 mi North - - N/A   Scattered Clouds
5:55 AM 71.8 °F - 71.8 °F 100% 30.14 in 3.0 mi North - - N/A   Clear
6:15 AM 71.8 °F - 71.8 °F 100% 30.14 in 3.0 mi North - - N/A   Scattered Clouds
6:35 AM 71.6 °F - 71.6 °F 100% 30.15 in 2.5 mi North - - N/A   Scattered Clouds
6:55 AM 72.0 °F - 72.0 °F 100% 30.15 in 2.5 mi North - - N/A   Scattered Clouds
7:15 AM 72.1 °F - 72.1 °F 100% 30.16 in 2.5 mi North - - N/A Rain Rain
7:35 AM 72.7 °F - 72.7 °F 100% 30.15 in 3.0 mi North - - N/A Rain Light Rain
7:55 AM 73.4 °F - 73.4 °F 100% 30.16 in 5.0 mi North - - N/A   Light Drizzle
8:15 AM 73.6 °F - 73.6 °F 100% 30.16 in 5.0 mi North - - N/A   Clear
8:35 AM 73.9 °F - 73.9 °F 100% 30.15 in 5.0 mi North - - N/A   Scattered Clouds
8:55 AM 75.7 °F - 74.7 °F 96% 30.16 in 7.0 mi North - - N/A   Mostly Cloudy
9:15 AM 78.1 °F - 75.2 °F 91% 30.16 in 10.0 mi North - - N/A   Mostly Cloudy
9:35 AM 79.0 °F - 74.8 °F 87% 30.15 in 10.0 mi North - - N/A   Mostly Cloudy
9:55 AM 79.7 °F - 74.8 °F 85% 30.15 in 10.0 mi North - - N/A   Mostly Cloudy
10:15 AM 78.6 °F - 74.1 °F 86% 30.15 in 10.0 mi North - - N/A   Overcast
10:35 AM 80.2 °F 85.7 °F 75.7 °F 86% 30.15 in 10.0 mi North - - N/A   Mostly Cloudy
10:55 AM 81.0 °F 86.5 °F 74.7 °F 81% 30.15 in 10.0 mi North - - N/A   Overcast
11:35 AM 82.4 °F 89.2 °F 74.8 °F 78% 30.14 in 10.0 mi North - - N/A   Mostly Cloudy
11:55 AM 83.3 °F 90.8 °F 75.2 °F 76% 30.13 in 10.0 mi North - - N/A   Mostly Cloudy
12:15 PM 84.4 °F 92.4 °F 74.8 °F 73% 30.13 in 10.0 mi North - - N/A   Mostly Cloudy
12:35 PM 86.0 °F 95.5 °F 75.6 °F 71% 30.12 in 10.0 mi North - - N/A   Mostly Cloudy
12:55 PM 82.9 °F 90.5 °F 75.4 °F 78% 30.11 in 10.0 mi North - - N/A   Mostly Cloudy
1:15 PM 81.5 °F 88.5 °F 76.3 °F 84% 30.10 in 10.0 mi North - - N/A   Mostly Cloudy
1:35 PM 84.7 °F 92.8 °F 74.7 °F 72% 30.09 in 10.0 mi North - - N/A   Scattered Clouds
1:55 PM 81.9 °F 88.9 °F 75.9 °F 82% 30.10 in 10.0 mi North - - N/A   Mostly Cloudy
2:15 PM 78.1 °F - 75.2 °F 91% 30.10 in 5.0 mi North - - N/A Rain Rain
2:35 PM 77.5 °F - 75.6 °F 94% 30.12 in 2.5 mi North - - N/A Rain Light Rain
2:55 PM 76.8 °F - 73.9 °F 91% 30.11 in 10.0 mi North - - N/A Rain Light Rain
3:15 PM 76.1 °F - 73.4 °F 91% 30.10 in 10.0 mi North - - N/A Rain Light Rain
3:35 PM 74.8 °F - 73.4 °F 95% 30.09 in 7.0 mi North - - N/A Rain Light Rain
3:55 PM 75.4 °F - 74.7 °F 98% 30.08 in 7.0 mi North - - N/A Rain Light Rain
4:15 PM 77.9 °F - 73.9 °F 88% 30.07 in 10.0 mi North - - N/A   Scattered Clouds
4:35 PM 79.2 °F - 73.6 °F 83% 30.06 in 10.0 mi North - - N/A   Scattered Clouds
4:55 PM 79.2 °F - 74.7 °F 86% 30.06 in 10.0 mi North - - N/A   Scattered Clouds
5:15 PM 80.6 °F 86.2 °F 75.2 °F 84% 30.05 in 10.0 mi North - - N/A   Scattered Clouds
5:35 PM 79.0 °F - 74.8 °F 87% 30.04 in 10.0 mi North - - N/A   Clear
5:55 PM 78.1 °F - 74.8 °F 90% 30.04 in 10.0 mi North - - N/A   Clear
6:15 PM 78.8 °F - 75.2 °F 89% 30.04 in 10.0 mi North - - N/A   Clear
6:35 PM 79.0 °F - 75.2 °F 88% 30.05 in 10.0 mi North - - N/A   Scattered Clouds
6:55 PM 79.2 °F - 75.2 °F 88% 30.06 in 10.0 mi North - - N/A   Mostly Cloudy
7:15 PM 78.1 °F - 75.2 °F 91% 30.06 in 10.0 mi North - - N/A   Overcast
7:35 PM 76.6 °F - 75.2 °F 95% 30.05 in 10.0 mi North - - N/A   Overcast
7:55 PM 76.1 °F - 75.2 °F 97% 30.06 in 10.0 mi North - - N/A   Overcast
8:15 PM 75.7 °F - 74.8 °F 97% 30.06 in 10.0 mi North - - N/A   Overcast
8:35 PM 75.2 °F - 74.5 °F 98% 30.05 in 7.0 mi North - - N/A   Scattered Clouds
8:55 PM 74.7 °F - 74.3 °F 99% 30.05 in 10.0 mi North - - N/A   Mostly Cloudy
9:15 PM 74.5 °F - 74.3 °F 99% 30.06 in 7.0 mi North - - N/A   Overcast
9:35 PM 74.3 °F - 71.6 °F 91% 30.08 in 10.0 mi North - - N/A Rain Rain
9:55 PM 71.4 °F - 70.7 °F 98% 30.09 in 1.2 mi North - - N/A Rain Heavy Rain
10:15 PM 70.7 °F - 70.7 °F 100% 30.09 in 3.0 mi North - - N/A Rain Rain
10:35 PM 70.3 °F - 70.3 °F 100% 30.06 in 5.0 mi North - - N/A Rain Light Rain
10:55 PM 70.2 °F - 70.2 °F 100% 30.04 in 10.0 mi North - - N/A Rain Light Rain
11:15 PM 70.2 °F - 70.2 °F 100% 30.04 in 10.0 mi North - - N/A   Scattered Clouds
11:35 PM 70.0 °F - 70.0 °F 100% 30.06 in 10.0 mi North - - N/A   Mostly Cloudy
11:55 PM 69.8 °F - 69.8 °F 100% 30.06 in 10.0 mi North - - N/A   Mostly Cloudy